Powrót do katalogu

FREGAT DEB

LostUNKNOWN
NORAD 45865·DEBRIS·🇷🇺 Russia

Wystrzelony Jul 18, 2011 z Baikonur Cosmodrome

Loading…

Następne Przeloty (najbliższe 24 godziny)

TLE

NieaktualneSource: Space-Track

Epoka: Jun 16, 2021, 14:42 UTC

1 45865U 11037CP  21167.61308888  .02026380  00000-0  35746+0 0  9994
2 45865  51.0359 299.0925 1821719 197.7503 155.0571 11.46075747 39682

Śledź FREGAT DEB w czasie rzeczywistym z AllMySat

Download on the App Store